Regional Weather Roundup
Issued by NWS

Home | Current Version | Previous Version | Text Only | Print | Product List | Glossary On
Versions: 1 2 3 4 5 6 7 8 9 10 11 12 13 14 15 16 17 18 19 20 21 22 23 24 25 26 27 28 29 30 31 32 33 34 35 36 37 38 39 40 41 42 43 44 45 46 47 48 49 50
000
ASUS44 KMEG 211810
RWRTN
TENNESSEE HOURLY STATE WEATHER ROUNDUP
NATIONAL WEATHER SERVICE MEMPHIS TN
1200 PM CST SUN DEC 21 2014

TNZ002-004-019-021-049-052-054-088>092-211900-
WEST TENNESSEE

CITY           SKY/WX    TMP DP  RH WIND       PRES   REMARKS
MEMPHIS INTL   MOSUNNY   53  30  41 SE5       30.13F
NWS MEMPHIS      N/A     53 N/A N/A MISG        N/A
JACKSON        SUNNY     52  32  46 E3        30.14F
DYERSBURG      MOSUNNY   48  27  43 SE6       30.17F
UNION CITY       N/A     45  32  61 SE5       30.15F
PARIS          SUNNY     46  30  53 SE7       30.16F
HUNTINGDON     SUNNY     47  29  50 SE7       30.16F
LEXINGTON      SUNNY     48  30  49 CALM      30.13F
SAVANNAH       SUNNY     52  34  50 CALM      30.14F
$$

TNZ008-025-027-028-033-062-065-066-211900-
NORTH MIDDLE TENNESSEE

CITY           SKY/WX    TMP DP  RH WIND       PRES   REMARKS
NASHVILLE      MOSUNNY   50  29  44 NE7       30.17F
CLARKSVILLE    MOSUNNY   46  31  55 E6        30.17F
SMYRNA         SUNNY     51  32  48 VRB5      30.18F
COOKEVILLE     CLOUDY    52  36  54 SW6       30.16S
CROSSVILLE     MOSUNNY   47  31  53 VRB5      30.16F
$$

TNZ061-075-076-078-094-096-097-211900-
SOUTH MIDDLE TENNESSEE

CITY           SKY/WX    TMP DP  RH WIND       PRES   REMARKS
FAYETTEVILLE   CLOUDY    48  37  66 MISG      30.14F
TULLAHOMA      PTSUNNY   50  36  57 S5        30.14F
WINCHESTER     CLOUDY    48  37  66 SE7       30.14F
MCMINNVILLE    SUNNY     52  37  58 CALM      30.15F
COLUMBIA       SUNNY     48  37  66 E5        30.13F
SHELBYVILLE    SUNNY     54  39  58 CALM      30.15F
$$

TNZ017-018-042-046-047-211900-
NORTHEAST TENNESSEE

CITY           SKY/WX    TMP DP  RH WIND       PRES   REMARKS
TRI CITIES     MOSUNNY   49  34  56 CALM      30.17F
ELIZABETHTON   CLOUDY    46  34  61 CALM      30.15F
$$

TNZ012-013-036-069-073-074-211900-
CENTRAL EAST TENNESSEE

CITY           SKY/WX    TMP DP  RH WIND       PRES   REMARKS
KNOXVILLE      PTSUNNY   48  36  63 NW3       30.17F
OAK RIDGE      CLOUDY    47  31  53 VRB3      30.19F
GATLINBURG     CLEAR     50  36  57 VRB3      30.16F
MORRISTOWN     CLEAR     50  36  57 CALM      30.16F
$$

TNZ083-085-099-211900-
SOUTHEAST TENNESSEE

CITY           SKY/WX    TMP DP  RH WIND       PRES   REMARKS
CHATTANOOGA    CLOUDY    45  34  65 N3        30.19F
$$

SKY/WX REPORTED AS FAIR MEANS FEW OR NO CLOUDS BELOW
12 THOUSAND FEET.




USA.gov is the U.S. government's official web portal to all federal, state and local government web resources and services.